Content
SEND FEEDBACK

Daily
Averages
Monthly
Summary
United States of America

ASHLAND, ALABAMA


Home > North America > United States > Alabama
Elevation: 1023 feet     Latitude: 33 17N     Longitude: 085 48W

WEATHER
 
SELECT A DAY
Number of Records: 203,859;   Date Range: 1/1/95 - 9/19/14
 
SHARE

PRINT THIS DATA

[ ← Previous Day ]
WEATHER ALMANAC - JANUARY 3, 2013
[ Next Day → ]
[ °C ]   °F
Weather ElementAverageHighLow
Temperature37.2 °F44.1 °F (2:53 pm)28 °F (11:53 pm)
Dewpoint30.5 °F35.1 °F (2:53 am)25 °F (11:53 pm)
Humidity77.7 %89 % (4:53 am)53 % (3:53 pm)
Barometer30.30 in30.41 in (9:53 pm)30.23 in (3:53 am)
Wind Speed3.8 mph8.1 mph (10:53 am)
Weather ElementAverage
Visibility7 mi
Wind DirectionS (183.2 °)

Weather ElementTotal
Precipitation---
Heating Degree Days29 (Base 65)
Averaged from 25 records on January 3, 2013
WEATHER CONDITIONS BREAKOUT
WIND DIRECTION BREAKOUT
WEATHER BY HOUR - JANUARY 3, 2013
[ °C ]   °F
Local TimeTemperatureDewpointHumidityBarometerVisibilityWind DirectionWind SpeedGust SpeedPrecipitationEventsConditions
2:53 AM39.0 °F35.1 °F86 %30.24 in5.0 miNW (320°)5.8 mphOvercast
3:53 AM39.0 °F35.1 °F86 %30.23 in5.0 miVariable5.8 mphOvercast
4:53 AM37.9 °F35.1 °F89 %30.24 in5.0 miNNW (330°)4.6 mphOvercast
5:53 AM37.9 °F34.0 °F86 %30.25 in5.0 miNW (320°)6.9 mphOvercast
6:53 AM37.0 °F34.0 °F89 %30.25 in5.0 miNorth (10°)5.8 mphOvercast
7:53 AM37.0 °F33.1 °F86 %30.27 in5.0 miNW (320°)4.6 mphOvercast
8:03 AM37.4 °F33.8 °F87 %30.24 in4.0 miNNW (330°)3.5 mphOvercast
8:53 AM37.9 °F32.0 °F79 %30.29 in5.0 miNNW (340°)5.8 mphHaze
9:43 AM37.4 °F32.0 °F81 %30.28 in6.0 miNNW (330°)4.6 mphHaze
9:53 AM37.9 °F32.0 °F79 %30.31 in6.0 miVariable3.5 mphHaze
10:53 AM39.0 °F30.9 °F73 %30.31 in7.0 miNorth (360°)8.1 mphOvercast
11:50 AM39.2 °F30.2 °F70 %30.26 in8.0 miVariable3.5 mphPartly Cloudy
11:53 AM41.0 °F30.0 °F65 %30.29 in8.0 miNNW (340°)3.5 mphPartly Cloudy
12:53 PM41.0 °F30.0 °F65 %30.27 in8.0 miNNW (340°)5.8 mphClear
1:53 PM42.1 °F30.0 °F62 %30.28 in8.0 miNNW (340°)8.1 mphClear
2:53 PM44.1 °F28.9 °F55 %30.30 in9.0 miNNW (340°)5.8 mphClear
3:53 PM44.1 °F28.0 °F53 %30.31 in10.0 miWNW (300°)5.8 mphClear
4:53 PM42.1 °F27.0 °F55 %30.32 in10.0 miCalmClear
5:53 PM36.0 °F28.9 °F76 %30.34 in10.0 miCalmClear
6:53 PM33.1 °F28.9 °F85 %30.35 in10.0 miCalmClear
7:53 PM32.0 °F28.0 °F85 %30.37 in9.0 miWest (260°)3.5 mphClear
8:53 PM30.0 °F27.0 °F88 %30.40 in8.0 miCalmClear
9:53 PM30.9 °F27.0 °F85 %30.41 in8.0 miCalmClear
10:53 PM28.9 °F26.1 °F89 %30.41 in6.0 miCalmClear
11:53 PM28.0 °F25.0 °F88 %30.39 in6.0 miCalmClear
Hourly data recorded from KANB, located miles away from Ashland, Alabama







STORIES FROM OUR PARTNERS